Temp
20 19 20 19 19 19 19 19 19 19 18 18 19 18 19 19 19 19 20 20 20 20
20 20 20 20 20 20 19 19 19 19 19 19 19 19 19 19 19 19 19 19 20 20
20 20 20 19 19 20 19 19 19 19 19 19 19 18 18 18 19 19 19 18 19 19
20 20 19 19 20 20 20 20 19 19 19 19 19 18 18 18 18 19 19 19 19 18
19 19 19 19 20 20 20 20 19 19 18 18 19 18 18 18 18 19 19 19 19 19
19 19 19 19 19 19 19 19 19 19 19 19 19 19 18 18 18 19 19 19 19 19
20 19 19 19 19 19 19 19 19 19 19 19 19 19 19 19 18 18 19 19 19 19
20 19 19 19 19 19 19 18 18 18 18 18 18 18 19 19 18 19 18 18 19 19
19 19 19 18 19 18 18 18 18 18 17 17 18 18 18 19 19 18 19 18 18 19
20 19 19 18 18 18 18 18 18 18 18 17 18 18 18 18 19 19 19 18 19 18
19 19 20 18 18 18 17 17 17 17 17 16 17 17 18 18 18 18 19 18 18 18
18 18 19 18 17 16 17 17 17 17 16 16 16 17 17 17 17 18 18 18 18 18
17 17 17 17 17 16 16 17 16 16 16 15 16 16 16 16 16 17 17 17 16 17
16 17 17 15 15 15 16 16 16 15 15 15 15 16 16 15 16 17 17 17 17 16
Height
1577 1579 1581 1583 1585 1586 1588 1590 1591 1592 1594 1595 1594 1595 1596 1596 1596 1596 1596 1597 1597 1598
1576 1577 1579 1581 1581 1583 1584 1587 1588 1589 1590 1592 1592 1592 1593 1594 1595 1595 1595 1595 1595 1596
1573 1575 1577 1579 1581 1582 1583 1584 1585 1587 1587 1589 1590 1591 1591 1591 1593 1594 1594 1594 1594 1594
1569 1572 1575 1576 1578 1581 1582 1581 1582 1583 1585 1586 1588 1589 1589 1590 1591 1592 1592 1593 1592 1592
1567 1570 1572 1575 1577 1579 1579 1579 1580 1580 1582 1584 1585 1586 1587 1588 1589 1589 1591 1591 1591 1590
1564 1567 1569 1572 1574 1576 1577 1578 1579 1579 1580 1582 1583 1584 1584 1585 1586 1587 1587 1589 1589 1589
1560 1562 1566 1568 1570 1572 1575 1575 1577 1578 1578 1579 1579 1581 1581 1582 1583 1583 1585 1586 1588 1588
1555 1558 1561 1563 1565 1568 1570 1572 1573 1574 1574 1576 1576 1576 1578 1580 1581 1579 1581 1583 1584 1585
1551 1554 1556 1559 1561 1563 1565 1568 1568 1570 1571 1572 1572 1573 1575 1577 1577 1579 1581 1581 1581 1582
1546 1550 1551 1555 1556 1558 1560 1561 1563 1564 1567 1568 1569 1570 1571 1572 1574 1576 1578 1579 1579 1580
1541 1544 1545 1549 1551 1554 1556 1555 1558 1558 1560 1561 1565 1567 1566 1568 1570 1571 1573 1575 1575 1577
1537 1538 1539 1544 1546 1547 1550 1552 1553 1554 1555 1557 1560 1563 1564 1565 1567 1567 1568 1570 1572 1574
1534 1536 1538 1538 1540 1543 1545 1547 1549 1551 1552 1553 1553 1557 1559 1561 1564 1564 1565 1565 1567 1569
1532 1531 1532 1535 1536 1538 1543 1546 1548 1548 1549 1549 1552 1553 1555 1559 1561 1561 1561 1562 1563 1564
Wind_Speed
21 19 16 15 15 14 16 13 15 19 14 11 11 9 10 8 10 9 9 9 6 5
21 20 19 12 12 12 13 13 16 15 16 13 11 10 10 12 11 11 9 9 10 8
24 21 18 17 14 11 10 13 16 14 14 13 11 10 11 11 9 10 9 10 7 6
26 23 20 18 15 13 11 13 13 14 14 14 14 11 8 8 10 11 10 11 11 9
26 25 23 21 18 14 9 9 11 13 14 16 15 15 11 9 10 11 11 9 8 8
26 25 24 22 19 15 12 11 11 10 16 17 16 15 11 11 11 12 13 12 8 5
25 25 23 19 18 16 15 12 12 11 12 14 16 16 13 13 12 9 12 15 15 12
25 23 22 20 18 18 19 16 13 13 13 14 13 12 13 15 16 12 14 18 15 14
26 26 24 23 23 23 23 19 20 19 16 13 14 13 12 12 14 15 16 16 16 16
29 28 26 26 24 29 26 21 20 24 21 18 15 14 12 14 14 14 15 15 13 13
33 33 27 26 27 23 25 25 25 24 24 20 17 17 11 12 13 14 13 15 15 16
28 29 29 33 30 28 20 23 24 22 26 25 20 19 18 9 7 8 11 12 13 15
26 24 26 30 30 25 20 20 19 18 19 18 18 18 17 17 16 14 14 14 7 12
21 19 20 15 13 12 12 12 13 13 13 13 12 10 9 10 10 12 10 11 13 13
Wind_Direction
219 218 227 233 240 242 243 229 237 227 235 246 222 224 227 253 245 235 238 241 251 251
227 224 231 237 232 224 222 233 232 221 227 242 232 213 232 242 242 235 241 254 248 251
232 229 232 229 218 215 217 228 222 222 224 237 229 214 228 226 239 234 241 240 248 242
229 231 232 222 219 224 238 235 231 228 223 233 219 225 216 220 233 230 243 248 258 244
225 228 226 225 225 224 231 239 213 217 226 217 224 225 229 246 249 249 252 240 250 241
228 229 229 231 230 229 237 226 232 241 223 227 224 230 237 246 249 253 246 243 232 214
233 233 235 238 234 230 229 222 222 230 226 228 232 238 237 232 231 230 231 234 246 248
227 227 229 233 224 220 218 219 222 226 232 232 235 241 242 239 240 231 229 238 241 249
230 223 227 235 238 241 241 240 237 236 234 248 244 244 248 251 234 233 234 238 245 251
230 232 225 230 239 243 249 250 245 245 241 242 253 251 254 253 248 238 239 245 252 255
233 238 229 233 232 242 246 259 258 259 238 237 253 254 266 254 253 249 245 243 249 249
244 233 228 233 236 242 244 257 256 248 235 227 253 249 244 244 264 255 249 255 265 268
245 244 236 232 241 245 256 258 249 239 239 234 237 240 245 249 264 259 259 257 257 281
257 250 240 233 233 232 238 233 230 227 229 226 226 235 236 227 244 245 243 239 230 230